{"data":{"norad_id":62607,"intl_designator":"2025-008W","name":"STARLINK-32784","alt_names":[],"object_type":"PAYLOAD","status":"ACTIVE","operator":null,"country":"US","launch_date":"2025-01-13","launch_site_code":"AFETR","launch_vehicle":null,"mission":null,"orbit_class":"UNKNOWN","rcs_meters":null,"size_class":null,"mass_kg":null,"dimensions":null,"purposes":["comms"],"wikipedia_slug":null,"has_3d_model":false,"image_url":null,"decayed_at":null,"tle_current":{"epoch":"2026-09-21T13:21:27.495072Z","epoch_age_seconds":80046,"freshness":"FRESH","line1":"1 62607U 25008W   26264.55656823  .00141893  00000+0  10014-2 0  9999","line2":"2 62607  42.9815 210.2532 0027776 164.6737 195.4978 15.72326231 96055","mean_motion":15.72326231,"eccentricity":0.0027776,"inclination_deg":42.9815,"raan_deg":210.2532,"arg_perigee_deg":164.6737,"mean_anomaly_deg":195.4978,"bstar":0.0010014,"rev_number":9605,"period_min":91.584047356646,"perigee_km":333.55615740378,"apogee_km":370.94480594197,"semimajor_km":6730.3874816729,"source":"CELESTRAK","updated_at":"2026-09-22T09:00:49.652981Z"}}}